Weather History for Watertown, SD

Change the Weather History Date:

Saturday, June 29, 2013

  Actual Average Record
Temperature  
Mean Temperature 69 °F 70 °F  
Max Temperature 78 °F 81 °F 102 °F (1931)
Min Temperature 59 °F 58 °F 39 °F (1925)
Degree Days  
Heating Degree Days 0 1  
Month to date heating degree days 88 76  
Since 1 June heating degree days 88 76  
Since 1 July heating degree days 9105 8523  
Cooling Degree Days 4 5  
Month to date cooling degree days 88 89  
Year to date cooling degree days 110 111  
Since 1 June cooling degree days 88 89  
Growing Degree Days 18 (Base 50)    
Moisture  
Dew Point 56 °F    
Average Humidity 65    
Maximum Humidity 90    
Minimum Humidity 40    
Precipitation  
Precipitation 0.00 in 0.11 in 1.89 in (1971)
Month to date precipitation 5.51 3.47  
Year to date precipitation 13.50 10.32  
Sea Level Pressure  
Sea Level Pressure 29.97 in    
Wind  
Wind Speed 14 mph (North)    
Max Wind Speed 24 mph    
Max Gust Speed 30 mph    
Visibility 10 miles    
Events      
T = Trace of Precipitation, MM = Missing Value Source: NWS Daily Summary

Daily Weather History Graph

Daily Weather History Graph

Search for Another Location

Airport:

Trip Planner

Search our weather history database for the weather conditions in past years. The results will help you decide how hot, cold, wet, or windy it might be!

Date:

Astronomy

Jun. 29, 2013 Rise Set
Actual Time 5:45 AM CDT 9:18 PM CDT
Civil Twilight 5:08 AM CDT 9:55 PM CDT
Nautical Twilight 4:18 AM CDT 10:45 PM CDT
Astronomical Twilight 3:14 AM CDT 11:49 PM CDT
Moon 12:30 AM CDT (6/29) 1:18 PM CDT (6/29)
Length of Visible Light 16h 47m
Length of Day
15h 33m
Waning Gibbous, 55% of the Moon is Illuminated
Jun 29
Waning Gibbous
Jun 29
Last Quarter
Jul 8
New
Jul 15
First Quarter
Jul 22
Full

Hourly Weather History & Observations

Time (CDT) Temp. Dew Point Humidity Pressure Visibility Wind Dir Wind Speed Gust Speed Precip Events Conditions
12:53 AM 64.9 °F 57.0 °F 75% 29.92 in 10.0 mi North 9.2 mph - N/A   Clear
1:53 AM 60.1 °F 55.9 °F 86% 29.92 in 10.0 mi North 6.9 mph - N/A   Clear
2:53 AM 61.0 °F 57.0 °F 87% 29.92 in 10.0 mi North 9.2 mph - N/A   Clear
3:53 AM 61.0 °F 57.0 °F 87% 29.93 in 10.0 mi North 11.5 mph - N/A   Clear
4:53 AM 62.1 °F 57.0 °F 84% 29.93 in 10.0 mi NNW 11.5 mph - N/A   Clear
5:53 AM 62.1 °F 57.9 °F 86% 29.95 in 10.0 mi NNW 12.7 mph - N/A   Clear
6:41 AM 62.6 °F 57.2 °F 82% 29.98 in 10.0 mi NNW 15.0 mph - N/A   Mostly Cloudy
6:50 AM 62.6 °F 57.2 °F 82% 29.98 in 10.0 mi NNW 15.0 mph - N/A   Scattered Clouds
6:53 AM 62.1 °F 57.9 °F 86% 29.96 in 10.0 mi NNW 12.7 mph - N/A   Scattered Clouds
7:53 AM 64.9 °F 59.0 °F 81% 29.97 in 10.0 mi North 23.0 mph 27.6 mph N/A   Scattered Clouds
8:53 AM 68.0 °F 57.9 °F 70% 29.97 in 10.0 mi North 20.7 mph 29.9 mph N/A   Clear
9:53 AM 71.1 °F 55.0 °F 57% 29.98 in 10.0 mi North 21.9 mph - N/A   Clear
10:53 AM 73.0 °F 55.9 °F 55% 29.98 in 10.0 mi North 18.4 mph - N/A   Scattered Clouds
11:53 AM 71.1 °F 55.0 °F 57% 29.99 in 10.0 mi North 18.4 mph - N/A   Mostly Cloudy
12:53 PM 70.0 °F 55.0 °F 59% 29.99 in 10.0 mi North 17.3 mph - N/A   Overcast
1:53 PM 73.0 °F 55.9 °F 55% 29.99 in 10.0 mi NNE 15.0 mph - N/A   Overcast
2:53 PM 75.9 °F 54.0 °F 46% 29.99 in 10.0 mi NNE 15.0 mph 25.3 mph N/A   Scattered Clouds
3:53 PM 77.0 °F 53.1 °F 43% 29.99 in 10.0 mi NNE 16.1 mph - N/A   Partly Cloudy
4:53 PM 77.0 °F 52.0 °F 42% 29.98 in 10.0 mi NNE 16.1 mph 23.0 mph N/A   Partly Cloudy
5:53 PM 75.9 °F 54.0 °F 46% 29.99 in 10.0 mi North 16.1 mph - N/A   Partly Cloudy
6:53 PM 75.9 °F 52.0 °F 43% 29.99 in 10.0 mi North 17.3 mph - N/A   Clear
7:53 PM 73.9 °F 53.1 °F 48% 29.99 in 10.0 mi North 15.0 mph - N/A   Clear
8:53 PM 69.1 °F 54.0 °F 58% 29.99 in 10.0 mi North 9.2 mph - N/A   Clear
9:53 PM 64.0 °F 55.9 °F 75% 30.00 in 10.0 mi NNW 5.8 mph - N/A   Partly Cloudy
10:53 PM 61.0 °F 55.9 °F 83% 30.01 in 10.0 mi North 6.9 mph - N/A   Partly Cloudy
11:53 PM 62.1 °F 57.0 °F 84% 30.02 in 10.0 mi NNE 6.9 mph - N/A   Scattered Clouds